EW8485 Weather Reports


Display with metric or nautical units.
time (UTC)temp
F
wind
direction
speed
MPH
gust
MPH
rain 1hr
in
rain 24hr
in
rain mn
in
humidity
%
barometer
mb
20260902004320 86 91 0.0 2.0 0.00 0.00 0.00 75 1008.8
20260902004051 86 88 1.0 4.0 0.00 0.00 0.00 74 1008.8
20260902003319 86 74 2.0 6.0 0.00 0.00 0.00 74 1008.8
20260902002819 86 89 2.0 6.0 0.00 0.00 0.00 74 1008.7
20260902002319 86 46 2.0 5.0 0.00 0.00 0.00 73 1008.7
20260902001820 86 219 1.0 4.0 0.00 0.00 0.00 73 1008.7
20260902001312 87 85 2.0 5.0 0.00 0.00 0.00 74 1008.7
20260902000813 87 80 2.0 7.0 0.00 0.00 0.00 73 1008.7
20260902000314 87 58 1.0 7.0 0.00 0.00 0.00 71 1008.7
20260901235814 88 53 0.0 3.0 0.00 0.00 0.00 68 1008.6
20260901235314 88 134 0.0 1.0 0.00 0.00 0.00 66 1008.4
20260901234814 88 134 0.0 2.0 0.00 0.00 0.00 66 1008.4
20260901234308 89 134 0.0 2.0 0.00 0.00 0.00 66 1008.5
20260901233806 89 124 0.0 2.0 0.00 0.00 0.00 65 1008.5
20260901233304 89 122 0.0 2.0 0.00 0.00 0.00 65 1008.5
20260901232802 89 122 0.0 2.0 0.00 0.00 0.00 64 1008.6
20260901232305 89 102 0.0 2.0 0.00 0.00 0.00 64 1008.6
20260901232032 89 102 0.0 2.0 0.00 0.00 0.00 63 1008.6
20260901231259 89 95 0.0 2.0 0.00 0.00 0.00 63 1008.7
20260901230805 89 75 1.0 4.0 0.00 0.00 0.00 62 1008.7
20260901230759 89 111 1.0 4.0 0.00 0.00 0.00 62 1008.7
20260901225800 89 51 0.0 4.0 0.00 0.00 0.00 61 1008.7
20260901225259 89 65 1.0 3.0 0.00 0.00 0.00 62 1008.7
20260901224800 89 89 2.0 4.0 0.00 0.00 0.00 62 1008.7
20260901224300 90 59 1.0 3.0 0.00 0.00 0.00 61 1008.8
20260901224253 89 82 2.0 4.0 0.00 0.00 0.00 61 1008.8
20260901223910 90 86 1.0 3.0 0.00 0.00 0.00 61 1008.7
20260901222748 90 21 1.0 3.0 0.00 0.00 0.00 61 1008.7
20260901222248 90 70 1.0 4.0 0.00 0.00 0.00 58 1008.7
20260901221742 90 293 1.0 4.0 0.00 0.00 0.00 58 1008.7
20260901221245 90 305 1.0 6.0 0.00 0.00 0.00 58 1008.8
20260901221240 90 304 1.0 4.0 0.00 0.00 0.00 58 1008.7
20260901220236 90 25 1.0 6.0 0.00 0.00 0.00 58 1008.9
20260901215737 90 63 1.0 2.0 0.00 0.00 0.00 59 1008.9
20260901215238 90 34 1.0 4.0 0.00 0.00 0.00 60 1009.0
20260901214741 90 70 2.0 8.0 0.00 0.00 0.00 62 1009.2
20260901214736 90 127 2.0 5.0 0.00 0.00 0.00 61 1009.1
20260901213735 90 72 3.0 8.0 0.00 0.00 0.00 62 1009.2
20260901213233 91 57 2.0 6.0 0.00 0.00 0.00 62 1009.3
20260901212735 91 27 1.0 4.0 0.00 0.00 0.00 62 1009.2
20260901212234 91 78 1.0 3.0 0.00 0.00 0.00 61 1009.1
20260901211735 91 354 2.0 5.0 0.00 0.00 0.00 62 1009.0
20260901211232 91 82 2.0 5.0 0.00 0.00 0.00 61 1008.9
20260901210734 91 264 2.0 5.0 0.00 0.00 0.00 61 1008.9
20260901210233 91 41 3.0 7.0 0.00 0.00 0.00 62 1008.9
20260901205734 91 56 3.0 7.0 0.00 0.00 0.00 61 1009.0
20260901205234 92 117 2.0 5.0 0.00 0.00 0.00 60 1009.0
20260901204735 92 335 2.0 7.0 0.00 0.00 0.00 60 1009.0
20260901204229 92 60 3.0 7.0 0.00 0.00 0.00 61 1009.1
20260901203731 92 82 3.0 8.0 0.00 0.00 0.00 60 1009.1
20260901203228 93 110 3.0 8.0 0.00 0.00 0.00 58 1009.3
20260901203001 94 20 3.0 7.0 0.00 0.00 0.00 57 1009.3
20260901202230 94 52 2.0 7.0 0.00 0.00 0.00 57 1009.4
20260901201732 95 301 2.0 7.0 0.00 0.00 0.00 55 1009.4
20260901201225 95 44 3.0 9.0 0.00 0.00 0.00 57 1009.5
20260901200725 94 333 3.0 9.0 0.00 0.00 0.00 57 1009.5
20260901200456 95 97 2.0 6.0 0.00 0.00 0.00 56 1009.6
20260901195724 95 95 1.0 5.0 0.00 0.00 0.00 55 1009.6
20260901195225 96 296 1.0 5.0 0.00 0.00 0.00 57 1009.7
20260901194726 95 7 2.0 5.0 0.00 0.00 0.00 57 1009.8
20260901194451 95 1 2.0 6.0 0.00 0.00 0.00 57 1009.9
20260901193954 95 306 2.0 6.0 0.00 0.00 0.00 58 1009.9
20260901193221 94 12 3.0 6.0 0.00 0.00 0.00 57 1009.9
20260901192951 94 286 3.0 6.0 0.00 0.00 0.00 58 1010.0
20260901192223 94 77 2.0 6.0 0.00 0.00 0.00 57 1010.1
20260901191722 94 48 2.0 5.0 0.00 0.00 0.00 58 1010.1
20260901191451 93 248 2.0 5.0 0.00 0.00 0.00 60 1010.0
20260901190952 93 85 3.0 8.0 0.00 0.00 0.00 60 1010.1
20260901190220 93 94 3.0 8.0 0.00 0.00 0.00 60 1010.2
20260901185720 94 99 2.0 7.0 0.00 0.00 0.00 61 1010.2
20260901185221 93 319 2.0 11.0 0.00 0.00 0.00 60 1010.3
20260901184716 92 345 2.0 11.0 0.00 0.00 0.00 62 1010.4
20260901184217 92 107 2.0 4.0 0.00 0.00 0.00 63 1010.4
20260901183717 92 314 2.0 5.0 0.00 0.00 0.00 63 1010.4
20260901183218 92 56 2.0 6.0 0.00 0.00 0.00 63 1010.4
20260901182718 92 40 2.0 7.0 0.00 0.00 0.00 63 1010.6
20260901182217 92 298 2.0 7.0 0.00 0.00 0.00 62 1010.7
20260901181944 92 256 2.0 6.0 0.00 0.00 0.00 62 1010.8
20260901181208 92 54 2.0 6.0 0.00 0.00 0.00 65 1010.7
20260901180705 91 342 1.0 4.0 0.00 0.00 0.00 65 1010.8
20260901180202 91 24 1.0 4.0 0.00 0.00 0.00 67 1010.8
20260901175703 90 328 1.0 4.0 0.00 0.00 0.00 67 1010.9
20260901175204 90 307 2.0 4.0 0.00 0.00 0.00 68 1011.1
20260901174703 90 355 2.0 6.0 0.00 0.00 0.00 68 1011.1
20260901174200 90 309 2.0 6.0 0.00 0.00 0.00 70 1011.2
20260901173701 90 349 1.0 5.0 0.00 0.00 0.00 70 1011.3
20260901173201 90 288 2.0 5.0 0.00 0.00 0.00 73 1011.5
20260901172702 89 309 2.0 5.0 0.00 0.00 0.00 73 1011.7
20260901172202 89 274 2.0 6.0 0.00 0.00 0.00 75 1011.7
20260901171933 88 323 2.0 6.0 0.00 0.00 0.00 75 1011.8
20260901171201 88 289 2.0 5.0 0.00 0.00 0.00 76 1011.9
20260901170654 88 1 1.0 4.0 0.00 0.00 0.00 79 1011.8
20260901170426 87 330 2.0 5.0 0.00 0.00 0.00 78 1011.9
20260901165654 87 288 2.0 5.0 0.00 0.00 0.00 78 1012.0
20260901165203 87 68 2.0 4.0 0.00 0.00 0.00 78 1012.0
20260901164700 87 299 1.0 5.0 0.00 0.00 0.00 78 1012.1
20260901164653 87 330 2.0 5.0 0.00 0.00 0.00 78 1012.0
20260901163647 87 291 1.0 6.0 0.00 0.00 0.00 78 1012.1
20260901163148 87 283 1.0 6.0 0.00 0.00 0.00 79 1012.1
20260901162647 86 314 1.0 5.0 0.00 0.00 0.00 79 1012.1
20260901162147 86 265 2.0 6.0 0.00 0.00 0.00 79 1012.0
20260901161647 86 275 2.0 7.0 0.00 0.00 0.00 79 1012.1
20260901161147 86 294 1.0 7.0 0.00 0.00 0.00 79 1012.1
20260901160642 86 299 1.0 4.0 0.00 0.00 0.00 79 1012.1
20260901160140 86 334 2.0 5.0 0.00 0.00 0.00 81 1012.1
20260901155640 86 326 2.0 5.0 0.00 0.00 0.00 80 1012.0
20260901155413 86 280 2.0 6.0 0.00 0.00 0.00 80 1012.0
20260901154641 86 300 2.0 7.0 0.00 0.00 0.00 81 1011.9
20260901154141 86 297 2.0 7.0 0.00 0.00 0.00 81 1011.8
20260901153638 86 290 1.0 4.0 0.00 0.00 0.00 81 1011.8
20260901153137 86 17 1.0 3.0 0.00 0.00 0.00 82 1011.9
20260901152637 86 244 1.0 4.0 0.00 0.00 0.00 81 1011.9
20260901152137 86 300 1.0 4.0 0.00 0.00 0.00 82 1011.9
20260901151635 86 285 2.0 5.0 0.00 0.00 0.00 81 1011.9
20260901151134 86 198 2.0 4.0 0.00 0.00 0.00 81 1011.9
20260901150630 86 280 2.0 5.0 0.00 0.00 0.00 82 1011.8
20260901150130 86 314 2.0 6.0 0.00 0.00 0.00 82 1011.8
20260901145901 86 245 2.0 6.0 0.00 0.00 0.00 82 1011.9
20260901145134 86 34 2.0 6.0 0.00 0.00 0.00 82 1011.9
20260901144903 85 254 1.0 6.0 0.00 0.00 0.00 83 1011.9
20260901144131 85 67 1.0 5.0 0.00 0.00 0.00 85 1012.0
20260901143632 84 63 1.0 5.0 0.00 0.00 0.00 85 1012.0
20260901143130 84 316 1.0 5.0 0.00 0.00 0.00 87 1012.1
20260901142627 83 326 1.0 5.0 0.00 0.00 0.00 88 1012.1
20260901142127 83 347 0.0 3.0 0.00 0.00 0.00 88 1012.0
20260901141626 82 31 0.0 5.0 0.00 0.00 0.00 89 1012.1
20260901141358 82 302 0.0 5.0 0.00 0.00 0.00 89 1012.2
20260901140858 82 344 0.0 4.0 0.00 0.00 0.00 90 1012.1
20260901140127 81 311 0.0 4.0 0.00 0.00 0.00 90 1012.1
20260901135623 81 304 0.0 1.0 0.00 0.00 0.00 90 1012.1
20260901135124 81 328 0.0 2.0 0.00 0.00 0.00 91 1012.2
20260901134853 81 326 0.0 2.0 0.00 0.00 0.00 91 1012.1
20260901134124 81 282 0.0 2.0 0.00 0.00 0.00 91 1012.2
20260901133621 81 282 0.0 2.0 0.00 0.00 0.00 91 1012.2
20260901133121 81 254 0.0 1.0 0.00 0.00 0.00 91 1012.1
20260901132619 80 254 0.0 2.0 0.00 0.00 0.00 91 1012.1
20260901132116 80 295 0.0 2.0 0.00 0.00 0.00 92 1012.0
20260901131616 80 297 0.0 2.0 0.00 0.00 0.00 92 1011.9
20260901131117 80 272 0.0 2.0 0.00 0.00 0.00 92 1011.8
20260901130615 80 273 0.0 2.0 0.00 0.00 0.00 93 1011.8
20260901130115 80 303 0.0 2.0 0.00 0.00 0.00 93 1011.7
20260901125610 80 290 0.0 1.0 0.00 0.00 0.00 93 1011.7
20260901125111 79 284 0.0 0.0 0.00 0.00 0.00 94 1011.5
20260901124608 79 284 0.0 1.0 0.00 0.00 0.00 94 1011.5
20260901124339 79 283 0.0 1.0 0.00 0.00 0.00 94 1011.4
20260901123610 79 306 0.0 2.0 0.00 0.00 0.00 94 1011.3
20260901123341 79 311 0.0 2.0 0.00 0.00 0.00 94 1011.1
20260901122607 79 282 0.0 1.0 0.00 0.00 0.00 95 1011.0
20260901122103 79 294 0.0 1.0 0.00 0.00 0.00 95 1011.0
20260901121604 79 292 0.0 1.0 0.00 0.00 0.00 95 1010.9
20260901121105 78 3 0.0 0.0 0.00 0.00 0.00 95 1010.9
20260901120603 78 4 0.0 0.0 0.00 0.00 0.00 95 1010.9
20260901120109 78 296 0.0 1.0 0.00 0.00 0.00 95 1010.6
20260901115558 78 295 0.0 0.0 0.00 0.00 0.00 95 1010.7
20260901114827 78 296 0.0 1.0 0.00 0.00 0.00 96 1010.7
20260901114051 78 236 0.0 1.0 0.00 0.00 0.00 96 1010.7
20260901113551 78 234 0.0 0.0 0.00 0.00 0.00 96 1010.7
20260901113048 78 234 0.0 0.0 0.00 0.00 0.00 96 1010.7
20260901112547 78 234 0.0 1.0 0.00 0.00 0.00 95 1010.7
20260901112047 78 234 0.0 1.0 0.00 0.00 0.00 96 1010.7
20260901111547 78 203 0.0 0.0 0.00 0.00 0.00 95 1010.8
20260901111045 78 203 0.0 0.0 0.00 0.00 0.00 95 1010.7
20260901110545 78 203 0.0 0.0 0.00 0.00 0.00 95 1010.8
20260901110044 78 203 0.0 0.0 0.00 0.00 0.00 95 1010.7
20260901105541 78 203 0.0 0.0 0.00 0.00 0.00 95 1010.6
20260901105039 78 203 0.0 0.0 0.00 0.00 0.00 95 1010.7
20260901104536 78 203 0.0 0.0 0.00 0.00 0.00 95 1010.7
20260901104037 78 203 0.0 0.0 0.00 0.00 0.00 95 1010.6
20260901103757 78 203 0.0 0.0 0.00 0.00 0.00 95 1010.6
20260901103025 78 203 0.0 0.0 0.00 0.00 0.00 95 1010.5
20260901102526 78 203 0.0 0.0 0.00 0.00 0.00 95 1010.5
20260901102025 78 203 0.0 0.0 0.00 0.00 0.00 95 1010.4
20260901101523 78 203 0.0 1.0 0.00 0.00 0.00 95 1010.5
20260901101022 78 198 0.0 1.0 0.00 0.00 0.00 95 1010.5
20260901100517 78 195 0.0 0.0 0.00 0.00 0.00 94 1010.4
20260901100247 79 195 0.0 0.0 0.00 0.00 0.00 94 1010.5
20260901095513 79 195 0.0 0.0 0.00 0.00 0.00 94 1010.4
20260901095011 79 195 0.0 0.0 0.00 0.00 0.00 94 1010.5
20260901094510 79 195 0.0 0.0 0.00 0.00 0.00 94 1010.6
20260901094008 79 195 0.0 0.0 0.00 0.00 0.00 94 1010.7
20260901093506 79 195 0.0 0.0 0.00 0.00 0.00 94 1010.7
20260901093010 78 198 0.0 0.0 0.00 0.00 0.00 94 1010.8
20260901093004 79 195 0.0 0.0 0.00 0.00 0.00 94 1010.8
20260901092005 79 198 0.0 0.0 0.00 0.00 0.00 94 1010.7
20260901091504 79 198 0.0 0.0 0.00 0.00 0.00 94 1010.8
20260901091001 79 198 0.0 0.0 0.00 0.00 0.00 94 1010.8
20260901090501 78 198 0.0 0.0 0.00 0.00 0.00 94 1010.9
20260901090001 78 198 0.0 0.0 0.00 0.00 0.00 93 1010.9
20260901085501 79 198 0.0 0.0 0.00 0.00 0.00 93 1010.8
20260901084959 79 198 0.0 0.0 0.00 0.00 0.00 92 1010.8
20260901084458 79 198 0.0 0.0 0.00 0.00 0.00 92 1010.9
20260901083953 79 198 0.0 0.0 0.00 0.00 0.00 92 1010.9
20260901083451 79 198 0.0 0.0 0.00 0.00 0.00 92 1011.0
20260901082950 80 198 0.0 0.0 0.00 0.00 0.00 92 1011.0
20260901082447 80 198 0.0 0.0 0.00 0.00 0.00 92 1010.9
20260901081947 80 198 0.0 0.0 0.00 0.00 0.00 92 1010.9
20260901081446 80 198 0.0 0.0 0.00 0.00 0.00 92 1010.8
20260901080943 80 198 0.0 0.0 0.00 0.00 0.00 92 1010.9
20260901080443 80 198 0.0 1.0 0.00 0.00 0.00 92 1011.0
20260901075943 80 198 0.0 1.0 0.00 0.00 0.00 92 1011.0
20260901075441 80 195 0.0 0.0 0.00 0.00 0.00 92 1011.1
20260901074942 80 195 0.0 0.0 0.00 0.00 0.00 92 1011.1
20260901074434 79 195 0.0 0.0 0.00 0.00 0.00 93 1011.2
20260901073932 79 195 0.0 0.0 0.00 0.00 0.00 93 1011.1
20260901073431 79 195 0.0 0.0 0.00 0.00 0.00 93 1011.1
20260901072928 79 195 0.0 0.0 0.00 0.00 0.00 93 1011.1
20260901072429 79 195 0.0 0.0 0.00 0.00 0.00 93 1011.1
20260901071922 79 195 0.0 0.0 0.00 0.00 0.00 93 1011.2
20260901071422 79 195 0.0 0.0 0.00 0.00 0.00 93 1011.2
20260901070921 79 195 0.0 0.0 0.00 0.00 0.00 92 1011.4
20260901070423 79 195 0.0 0.0 0.00 0.00 0.00 92 1011.4
20260901065923 79 195 0.0 0.0 0.00 0.00 0.00 92 1011.3
20260901065423 79 195 0.0 0.0 0.00 0.00 0.00 92 1011.3
20260901064917 80 195 0.0 0.0 0.00 0.00 0.00 92 1011.2
20260901064418 80 195 0.0 0.0 0.00 0.00 0.00 92 1011.2
20260901063918 80 195 0.0 0.0 0.00 0.00 0.00 92 1011.3
20260901063418 80 195 0.0 0.0 0.00 0.00 0.00 91 1011.2
20260901062917 80 195 0.0 0.0 0.00 0.00 0.00 92 1011.3
20260901062649 80 195 0.0 0.0 0.00 0.00 0.00 91 1011.4
20260901061913 80 195 0.0 0.0 0.00 0.00 0.00 91 1011.5
20260901061412 80 195 0.0 0.0 0.00 0.00 0.00 92 1011.4
20260901060910 79 174 0.0 0.0 0.00 0.00 0.00 92 1011.4
20260901060408 79 132 0.0 0.0 0.00 0.00 0.00 91 1011.5
20260901055909 80 132 0.0 0.0 0.00 0.00 0.00 91 1011.5
20260901055408 80 132 0.0 0.0 0.00 0.00 0.00 91 1011.5
20260901054903 80 132 0.0 0.0 0.00 0.00 0.00 91 1011.4
20260901054406 80 132 0.0 0.0 0.00 0.00 0.00 90 1011.4
20260901054401 80 132 0.0 0.0 0.00 0.00 0.00 91 1011.4
20260901053357 80 132 0.0 0.0 0.00 0.00 0.00 90 1011.3
20260901052857 80 132 0.0 0.0 0.00 0.00 0.00 90 1011.2
20260901052355 80 132 0.0 0.0 0.00 0.00 0.00 90 1011.2
20260901051856 80 132 0.0 0.0 0.00 0.00 0.00 90 1011.3
20260901051625 80 132 0.0 0.0 0.00 0.00 0.00 89 1011.2
20260901050855 80 132 0.0 1.0 0.00 0.00 0.00 89 1011.1
20260901050353 80 132 0.0 1.0 0.00 0.00 0.00 89 1011.1
20260901050124 81 132 0.0 1.0 0.00 0.00 0.00 89 1010.9
20260901045356 81 132 0.0 2.0 0.00 0.00 0.00 89 1010.9
20260901045351 81 132 0.0 1.0 0.00 0.00 0.00 89 1010.9
20260901044849 81 132 0.0 2.0 0.00 0.00 0.00 89 1010.9
20260901043846 81 123 0.0 1.0 0.00 0.00 0.00 88 1010.9
20260901043342 81 131 0.0 1.0 0.00 0.00 0.00 88 1010.9
20260901042841 81 131 0.0 1.0 0.00 0.00 0.00 88 1010.8
20260901042342 81 131 0.0 1.0 0.00 0.00 0.00 88 1010.9
20260901041842 82 70 1.0 3.0 0.00 0.00 0.00 88 1010.9
20260901041340 82 70 1.0 3.0 0.00 0.00 0.00 87 1011.0
20260901040839 82 100 1.0 3.0 0.00 0.00 0.00 87 1011.0
20260901040335 82 91 1.0 3.0 0.00 0.00 0.00 87 1011.0
20260901035841 82 90 1.0 2.0 0.00 0.00 0.00 86 1010.9
20260901035834 82 75 1.0 3.0 0.00 0.00 0.00 86 1011.0
20260901034834 83 91 1.0 2.0 0.00 0.00 0.00 85 1010.9
20260901034334 83 77 1.0 2.0 0.00 0.00 0.00 85 1011.0
20260901033833 83 81 0.0 2.0 0.00 0.00 0.00 85 1010.8
20260901033331 82 77 0.0 2.0 0.00 0.00 0.00 86 1010.9
20260901032831 82 123 0.0 1.0 0.00 0.00 0.00 86 1010.8
20260901032330 82 123 0.0 0.0 0.00 0.00 0.00 86 1010.8
20260901031831 83 123 0.0 1.0 0.00 0.00 0.00 85 1010.7
20260901031328 83 123 0.0 2.0 0.00 0.00 0.00 85 1010.6
20260901030827 83 114 0.0 2.0 0.00 0.00 0.00 85 1010.5
20260901030323 83 96 0.0 2.0 0.00 0.00 0.00 85 1010.5
20260901025824 83 78 1.0 2.0 0.00 0.00 0.00 84 1010.4
20260901025323 83 113 1.0 2.0 0.00 0.00 0.00 84 1010.4
20260901024824 83 118 0.0 2.0 0.00 0.00 0.00 84 1010.3
20260901024553 83 96 0.0 2.0 0.00 0.00 0.00 85 1010.3
20260901023822 83 110 0.0 2.0 0.00 0.00 0.00 85 1010.1
20260901023320 83 134 0.0 1.0 0.00 0.00 0.00 85 1010.0
20260901022822 83 134 0.0 1.0 0.00 0.00 0.00 84 1009.9
20260901022553 83 129 0.0 1.0 0.00 0.00 0.00 84 1009.8
20260901022050 84 129 0.0 1.0 0.00 0.00 0.00 83 1009.8
20260901021547 84 129 0.0 1.0 0.00 0.00 0.00 83 1009.8
20260901020816 84 129 0.0 1.0 0.00 0.00 0.00 82 1009.8
20260901020319 84 129 0.0 2.0 0.00 0.00 0.00 81 1009.7
20260901020313 84 129 0.0 2.0 0.00 0.00 0.00 82 1009.7
20260901015313 85 129 0.0 2.0 0.00 0.00 0.00 80 1009.7
20260901014812 85 84 0.0 2.0 0.00 0.00 0.00 80 1009.7
20260901014311 85 104 0.0 3.0 0.00 0.00 0.00 79 1009.7
20260901013809 85 94 0.0 3.0 0.00 0.00 0.00 79 1009.7
20260901013536 85 96 1.0 3.0 0.00 0.00 0.00 78 1009.7
20260901012803 85 97 1.0 2.0 0.00 0.00 0.00 78 1009.7
20260901012306 86 96 1.0 3.0 0.00 0.00 0.00 77 1009.7
20260901011804 86 107 1.0 3.0 0.00 0.00 0.00 77 1009.7
20260901011304 86 94 1.0 4.0 0.00 0.00 0.00 76 1009.7
20260901010805 86 103 1.0 4.0 0.00 0.00 0.00 76 1009.6
20260901010256 86 122 1.0 3.0 0.00 0.00 0.00 75 1009.6
20260901005757 86 115 1.0 2.0 0.00 0.00 0.00 74 1009.7
20260901005257 86 94 1.0 3.0 0.00 0.00 0.00 73 1009.7
20260901005029 87 134 1.0 3.0 0.00 0.00 0.00 73 1009.8